Flag for U.S.A. Weather past 2 weeks in Virginia Beach, Virginia, U.S.A.

Now
46 °F

Overcast.


Feels Like: 43 °F
Forecast: 47 / 58 °F
Wind: 6 mph from Northeast

Location: Virginia Beach - Oceana


UV Index: 0 (Low)

Visibility: 10 mi


Pressure: 30.32 "Hg

Humidity: 83%

Dew point: 41 °F

Location of Virginia BeachLocation

Historic Weather in Virginia Beach

°F

Virginia Beach temperature yesterday

Maximum temperature yesterday: 52 °F (at 12:56 PM)
Minimum temperature yesterday: 42 °F (at 12:56 AM)
Average temperature yesterday: 46 °F

Past Weeks' High & Low Weather Summary

 TemperatureHumidityPressure
High83 °F (Apr 4, 6:56 PM)96% (Apr 7, 2:00 PM)30.59 "Hg (Apr 7, 2:00 PM)
Low38 °F (Apr 16, 4:56 AM)18% (Apr 4, 6:56 PM)29.56 "Hg (Apr 8, 1:56 PM)
Average59 °F64%30.06 "Hg
* Reported Apr 3 7:56 PM — Apr 18 7:56 PM, Virginia Beach, Weather by CustomWeather, © 2014

Note: Actual official high and low records may vary slightly from our data, if they occured in-between our weather recording intervals... More about our weather records

Advertising

Historic Weather Conditions — Data for Previous 24 hours

 ConditionsComfort  
Time TempWeatherWind HumidityBarometerVisibility
7:56 PM
Apr 18
46 °FOvercast.6 mph83%30.32 "Hg10 mi
6:56 PM46 °FMostly cloudy.10 mph79%30.32 "Hg10 mi
6:03 PM47 °FMostly cloudy.12 mph77%30.31 "Hg10 mi
4:56 PM48 °FMostly cloudy.9 mph74%30.34 "Hg10 mi
3:56 PM49 °FCloudy.12 mph71%30.36 "Hg10 mi
2:56 PM49 °FCloudy.14 mph69%30.39 "Hg10 mi
1:56 PM50 °FMostly cloudy.15 mph66%30.42 "Hg10 mi
12:56 PM51 °FPartly sunny.16 mph66%30.44 "Hg10 mi
11:56 AM50 °FPartly sunny.12 mph66%30.44 "Hg10 mi
10:56 AM49 °FPartly sunny.14 mph69%30.46 "Hg10 mi
9:56 AM47 °FMostly cloudy.10 mph71%30.45 "Hg10 mi
8:56 AM46 °FPartly sunny.14 mph71%30.46 "Hg10 mi
7:56 AM45 °FMostly cloudy.12 mph76%30.45 "Hg10 mi
6:56 AM43 °FOvercast.10 mph79%30.45 "Hg10 mi
5:56 AM44 °FOvercast.13 mph76%30.45 "Hg10 mi
4:56 AM44 °FOvercast.14 mph76%30.43 "Hg10 mi
3:56 AM44 °FOvercast.14 mph79%30.43 "Hg10 mi
2:56 AM44 °FOvercast.12 mph79%30.45 "Hg10 mi
1:56 AM44 °FOvercast.15 mph76%30.48 "Hg10 mi
12:56 AM44 °FOvercast.15 mph76%30.52 "Hg10 mi
11:56 PM
Apr 17
45 °FOvercast.14 mph74%30.53 "Hg10 mi
10:56 PM45 °FOvercast.13 mph74%30.54 "Hg10 mi
9:56 PM45 °FOvercast.16 mph76%30.53 "Hg10 mi
Weather by CustomWeather, © 2014

See weather overview